This demonstration page uses our WeatherBlox Daily Observations layout. Learn more.

Left ArrowRight Arrow

Hourly Observations for October 4, 2022

Temp ( °F °C ) Dew Point ( °F °C ) Humidity (%) Winds ( mph kmh ) Pressure ( in mb ) Visibility ( mi km ) Precip ( " mm )
12:33 am 00:33 Cloudy with Light Rain 52 11.1 49 9.4 89 89 N 14 22 30.05 1018 4 6 0.01 0.25
12:59 am 00:59 Cloudy with Light Rain 52 11.1 49 9.4 89 89 N 14 22 30.04 1017 3 4 0.01 0.25
1:24 am 01:24 Cloudy with Light Rain 52 11.1 49 9.4 89 89 NNW 15 24 30.04 1017 3 5 0.01 0.25
1:59 am 01:59 Cloudy with Light Rain 52 11.1 49 9.4 89 89 N 13 20 30.03 1017 4 6 0.01 0.25
2:59 am 02:59 Cloudy with Mist and Fog 52 11.1 49 9.4 89 89 NNW 18 30 30.01 1016 5 8 0.01 0.13
3:59 am 03:59 Cloudy with Mist and Fog 51 10.6 48 8.9 89 89 NW 14 22 30.00 1016 4 6 0.00 0.00
4:18 am 04:18 Cloudy with Mist and Fog 51 10.6 48 8.9 89 89 NW 14 22 30.00 1016 4 6 0.00 0.00
4:59 am 04:59 Cloudy with Mist and Fog 50 10 47 8.3 89 89 NW 18 30 29.99 1016 5 8 0.00 0.00
5:59 am 05:59 Cloudy 50 10 47 8.3 89 89 NNW 17 28 30.00 1016 7 11 0.01 0.25
6:59 am 06:59 Cloudy 50 10 47 8.3 89 89 NNW 17 28 30.00 1016 8 13 0.00 0.00
7:59 am 07:59 Cloudy 50 10 47 8.3 89 89 NW 20 31 30.00 1016 9 14 0.00 0.00
8:59 am 08:59 Cloudy 50 10 46 7.8 86 86 NNW 20 31 30.00 1016 10 16 0.00 0.00
9:59 am 09:59 Cloudy 50 10 46 7.8 86 86 NW 16 26 30.00 1016 10 16 0.01 0.13
10:16 am 10:16 Cloudy 50 10 46 7.8 86 86 NW 17 28 30.00 1016 10 16 0.00 0.00
10:59 am 10:59 Cloudy 51 10.6 47 8.3 86 86 NW 18 30 29.99 1016 10 16 0.00 0.00
11:59 am 11:59 Cloudy 52 11.1 47 8.3 83 83 NNW 16 26 29.98 1015 10 16 0.00 0.00
12:59 pm 12:59 Cloudy 53 11.7 47 8.3 80 80 NW 18 30 29.97 1015 10 16 0.00 0.00
1:27 pm 13:27 Cloudy 54 12.2 47 8.3 77 77 NW 15 24 29.96 1015 10 16 0.00 0.00
1:59 pm 13:59 Cloudy 54 12.2 47 8.3 77 77 WNW 16 26 29.96 1015 10 16 0.00 0.00
2:59 pm 14:59 Cloudy 55 12.8 47 8.3 74 74 NW 15 24 29.94 1014 10 16 0.00 0.00
3:59 pm 15:59 Cloudy 54 12.2 47 8.3 77 77 NW 15 24 29.94 1014 10 16 0.00 0.00
4:59 pm 16:59 Cloudy 54 12.2 47 8.3 77 77 WNW 16 26 29.94 1014 10 16 0.00 0.00
5:59 pm 17:59 Cloudy 54 12.2 48 8.9 80 80 NW 16 26 29.94 1014 7 11 0.00 0.00
6:59 pm 18:59 Cloudy with Light Rain 53 11.7 49 9.4 86 86 WNW 14 22 29.95 1014 6 10 0.01 0.13
7:59 pm 19:59 Cloudy with Mist and Fog 53 11.7 49 9.4 86 86 WNW 15 24 29.95 1014 6 10 0.01 0.25
8:21 pm 20:21 Cloudy with Mist and Fog 53 11.7 49 9.4 86 86 WNW 18 30 29.95 1014 6 10 0.00 0.00
8:59 pm 20:59 Cloudy with Haze 54 12.2 49 9.4 83 83 WNW 15 24 29.95 1014 6 10 0.00 0.00
9:59 pm 21:59 Cloudy 53 11.7 49 9.4 86 86 NW 17 28 29.94 1014 10 16 0.01 0.13
10:59 pm 22:59 Cloudy 53 11.7 49 9.4 86 86 NW 15 24 29.93 1014 10 16 0.01 0.13
11:59 pm 23:59 Cloudy 53 11.7 49 9.4 86 86 WNW 13 20 29.92 1013 10 16 0.00 0.00

Powered by AerisWeather